Dewpoint
0 0 3 2 6 4 3 1 -3 4 4 2 1 1 1 2 3 9 8 8 10 8 6 5 12 13 12 12 11 10 8 9 8 6 6 10 7 9 9 7 5 9 10 7 9 10 11 10 10
0 1 2 2 5 2 2 -2 0 1 1 0 1 1 2 2 4 7 10 8 10 10 9 8 12 12 12 12 12 10 9 7 4 5 8 11 9 9 7 5 4 3 7 4 7 9 10 10 10
2 4 2 5 6 5 -0 1 2 -0 -1 1 1 1 -0 3 4 8 9 5 9 10 13 13 12 12 13 13 12 10 8 5 2 3 9 11 10 11 10 6 4 2 1 -1 -0 7 9 8 9
5 2 2 3 4 3 -1 -4 0 -1 -1 1 1 2 3 5 7 9 8 8 10 10 13 13 11 12 13 13 11 10 6 0 -1 2 10 10 10 10 10 7 5 3 -0 -1 -3 -2 2 2 1
5 3 5 5 3 1 -3 -7 -8 -3 -0 1 1 2 4 6 6 9 9 10 10 10 11 8 3 10 12 11 11 9 4 -0 -2 5 9 11 11 10 10 10 3 3 0 -2 -2 -1 -0 -1 -3
5 3 5 5 3 -1 -1 -2 -7 -5 -3 -0 1 1 5 6 8 8 9 10 10 11 11 2 3 8 11 11 9 6 3 -0 -3 2 8 10 10 11 9 4 1 -1 -2 -3 -4 -3 0 5 2
6 5 6 4 2 1 0 -3 -5 -4 -1 -1 -0 0 4 5 2 9 10 10 10 11 10 6 4 7 10 8 8 5 3 1 -1 -2 3 10 9 2 2 -2 -4 -5 -5 -4 -3 -2 -1 2 3
6 5 5 4 4 4 -0 -3 -4 -3 -1 -0 -0 1 4 5 2 8 10 10 11 11 11 11 8 6 7 5 3 1 3 1 -1 -2 -5 -3 -3 -0 3 -1 -1 -2 -2 -1 -1 0 1 1 1
6 7 8 5 4 3 -1 -1 -2 -2 -0 -0 -0 -1 2 0 4 8 10 10 10 11 11 12 12 13 12 12 11 8 3 -1 -4 -3 -4 -1 -1 7 10 7 1 -1 -0 1 1 2 3 3 4
7 8 7 3 1 1 -0 -1 0 2 1 0 0 -0 0 -0 0 2 5 9 10 11 12 12 12 13 13 13 13 12 6 7 5 8 7 9 9 9 10 7 2 3 3 3 4 4 5 5 6
7 9 6 3 1 1 1 1 0 2 4 1 1 2 2 1 0 -1 -1 3 5 8 10 11 12 12 13 13 12 13 12 12 11 11 11 10 10 7 8 7 5 4 3 3 4 5 6 8 9
8 6 5 4 2 2 2 2 1 1 2 2 2 2 2 1 1 -1 -0 1 2 6 9 10 11 12 12 13 13 13 12 12 12 11 10 10 9 8 8 9 9 8 8 7 9 9 10 10 11
8 6 5 4 3 3 2 3 3 2 2 2 2 2 1 1 1 0 -1 -1 0 4 7 9 10 11 12 12 13 12 12 12 12 11 11 11 10 9 9 9 9 10 10 10 10 11 11 11 11
6 7 6 4 3 2 3 3 3 2 2 2 2 2 0 -2 0 0 -1 0 4 5 7 8 9 10 11 12 12 13 12 12 12 12 12 11 11 11 11 10 11 11 11 11 11 11 10 11 11
3 7 6 5 4 3 3 4 4 3 2 2 2 2 -1 -2 -1 -0 1 3 5 7 7 8 9 9 10 11 12 12 12 12 12 12 12 12 12 12 11 11 11 11 11 11 11 10 10 10 9
7 7 10 6 4 3 3 6 4 3 2 2 1 0 -2 -2 -0 1 1 1 1 5 8 8 9 9 9 10 11 12 12 12 12 12 12 12 11 11 11 11 11 10 10 10 10 8 6 4 1
8 10 10 9 5 3 4 5 3 2 2 1 0 -2 -2 -0 1 1 2 2 3 3 4 4 4 4 7 10 11 12 12 12 12 11 11 11 10 10 11 11 9 6 5 3 -1 -4 -3 -3 -4
8 9 8 9 6 4 5 4 3 2 2 0 -1 -2 -1 -1 1 2 2 2 2 3 5 4 1 1 5 10 11 12 12 11 11 11 11 10 8 8 7 1 -4 -4 -3 -2 -2 -3 -4 -6 -7
5 7 8 7 5 5 4 3 3 2 2 1 -1 -1 -1 -1 1 1 3 3 5 7 8 6 4 5 7 10 11 10 10 10 9 7 7 4 -1 -5 -5 -3 -2 -2 -3 -5 -6 -7 -8 -9 -13
6 8 8 5 4 4 4 5 3 1 1 0 -1 -0 -0 1 1 2 4 5 7 8 9 9 10 10 10 10 10 10 7 7 6 2 -3 -5 -4 -2 -1 -1 -3 -4 -5 -6 -8 -12 -15 -17 -17
6 8 9 6 5 3 3 5 3 1 -0 -0 -0 0 -0 0 2 3 3 4 7 8 9 10 9 10 10 10 8 7 4 0 -3 -5 -4 -2 -1 -1 -2 -2 -3 -4 -5 -7 -12 -16 -21 -20 -21
7 4 8 7 6 8 4 7 3 2 2 1 1 -1 0 1 2 3 4 4 6 6 7 6 5 5 5 4 3 1 -0 -4 -3 -2 -1 0 -1 -1 -1 -2 -3 -4 -7 -11 -16 -20 -24 -24 -23
6 6 9 7 7 8 6 8 5 2 2 1 -2 -2 1 1 2 3 4 4 4 3 3 3 4 4 4 3 1 -3 -4 -3 -2 -0 -0 -1 -1 -2 -3 -3 -3 -5 -9 -15 -20 -23 -25 -25 -22
4 7 8 8 9 10 6 7 5 3 1 -0 -2 -0 1 1 2 3 4 4 3 3 2 1 -0 -1 -2 -3 -3 -2 -2 -1 -0 -1 -1 -2 -3 -3 -3 -4 -6 -10 -14 -20 -24 -25 -25 -23 -21
7 9 11 12 11 9 5 6 4 -1 -2 -1 -1 1 1 1 3 4 4 4 3 1 -0 -2 -3 -3 -2 -2 -2 -2 -1 -1 -0 -1 -1 -2 -2 -2 -3 -5 -10 -15 -22 -25 -25 -24 -22 -21 -20
7 9 9 11 10 6 2 6 4 -1 -3 -2 -1 1 1 2 3 4 4 4 3 1 0 -1 -1 -1 -1 -1 -1 -1 -1 -0 -0 -0 -1 -1 -1 -4 -6 -9 -16 -25 -26 -25 -23 -22 -20 -19 -19
8 10 6 5 2 5 4 2 -3 -1 -1 -2 -0 1 1 2 3 3 4 4 3 2 1 0 -0 -1 -1 -1 -1 -1 -0 -0 0 0 -1 -3 -4 -6 -11 -19 -25 -25 -24 -22 -20 -19 -19 -20 -20
9 7 8 8 7 8 5 4 2 0 1 -1 0 1 2 2 3 3 4 4 3 3 2 1 0 -1 -1 -1 -1 -1 -0 0 -0 -2 -3 -6 -9 -14 -21 -24 -25 -23 -21 -19 -18 -18 -20 -20 -18
9 10 8 6 5 7 6 4 -1 -1 -1 -1 -1 1 2 2 3 3 4 4 3 3 2 1 1 -0 -1 -1 -1 0 0 -0 -2 -4 -5 -9 -16 -22 -24 -24 -23 -20 -18 -17 -18 -20 -20 -19 -17
7 8 7 7 6 4 4 3 -2 -1 -1 -2 -1 1 2 2 3 3 4 4 3 2 2 1 0 -0 -1 -1 -0 0 -0 -2 -4 -5 -7 -13 -20 -24 -25 -23 -20 -18 -17 -18 -19 -19 -19 -17 -18
Wind_Speed
14 12 12 11 3 2 6 9 9 5 3 7 12 8 9 14 4 3 7 3 3 2 3 7 8 8 5 3 2 5 5 5 5 3 4 4 2 5 7 9 8 3 5 2 6 10 8 6 9
13 12 10 5 2 2 5 8 4 4 12 11 14 7 5 2 13 9 7 5 7 7 1 8 9 7 4 5 3 5 6 5 3 1 4 4 3 3 2 3 2 4 4 3 6 10 10 11 10
12 9 7 3 5 7 4 3 7 12 14 11 5 3 4 6 9 5 3 5 7 9 1 4 6 7 7 6 4 5 6 6 3 3 6 3 2 2 4 5 5 6 5 3 3 10 13 11 11
7 6 7 4 11 15 4 6 4 4 8 7 10 7 7 5 3 5 3 8 5 9 10 8 6 8 8 6 5 5 6 5 3 4 7 4 1 0 6 6 4 7 6 5 2 4 9 11 10
8 6 4 6 11 12 1 6 9 3 4 8 4 6 5 6 5 4 5 9 7 9 7 5 8 10 10 8 4 4 3 5 1 5 8 2 3 2 6 3 5 9 8 7 5 4 4 5 7
10 9 6 8 13 15 3 4 3 7 15 9 2 7 6 5 5 2 4 10 8 11 7 4 7 11 11 7 5 2 1 3 2 5 5 3 2 5 7 7 6 7 8 8 8 7 7 8 8
12 6 11 12 14 16 1 7 1 9 10 7 5 3 10 7 7 7 6 7 9 8 7 4 7 9 9 8 6 3 2 0 1 1 3 4 5 3 5 6 6 6 7 6 6 6 6 7 8
19 7 16 13 9 15 9 5 3 3 9 11 2 3 5 2 6 5 7 6 7 7 7 6 4 6 8 6 3 2 3 2 1 0 0 3 2 1 4 5 4 6 6 6 6 6 7 7 8
18 9 13 16 16 14 3 3 5 4 9 11 14 12 5 5 6 4 2 7 7 7 9 9 6 6 4 2 2 3 5 3 1 1 1 4 1 4 9 8 8 7 6 6 6 7 8 9 11
11 8 16 14 12 10 15 6 5 6 11 16 10 14 7 3 1 3 5 7 9 12 12 13 12 11 7 4 8 8 3 2 1 2 3 5 7 5 7 11 9 7 6 6 8 9 10 12 12
22 17 14 20 27 24 7 10 9 11 6 13 15 15 10 11 9 10 12 9 12 12 13 14 13 14 12 13 11 5 7 4 5 4 4 5 5 9 6 8 8 9 9 10 11 14 15 16 18
20 25 25 27 27 18 6 11 16 18 14 16 17 15 18 16 13 13 8 8 7 11 13 14 15 13 13 12 11 6 8 6 6 6 8 8 6 5 5 6 9 12 12 13 14 14 15 15 17
24 19 29 27 29 29 12 13 16 19 18 21 21 20 19 17 16 15 10 9 12 10 14 15 14 16 12 15 11 9 9 9 7 8 6 6 8 6 5 8 9 10 10 12 12 15 14 16 17
13 29 25 28 25 26 12 16 21 21 18 24 22 20 19 19 16 15 15 11 9 9 13 15 16 13 15 13 14 11 10 8 6 6 7 7 7 8 8 8 6 9 11 12 13 16 16 17 17
27 21 14 24 26 15 21 19 16 25 23 30 25 21 20 10 10 12 14 17 15 13 15 15 13 15 16 15 12 11 10 10 7 6 4 7 6 7 7 7 7 7 9 12 13 15 16 17 17
10 18 16 20 17 23 18 19 11 23 28 31 28 18 17 8 10 11 14 11 14 18 20 20 22 19 17 16 13 11 8 8 7 6 4 1 3 6 6 3 5 7 7 9 11 13 14 15 17
10 12 24 15 18 15 19 18 14 26 30 21 12 14 12 11 7 9 7 7 7 7 8 12 12 15 18 16 14 15 15 12 10 10 10 9 9 5 4 5 5 3 5 8 10 13 16 20 21
15 19 19 23 19 17 20 20 13 23 18 14 13 20 16 14 11 9 6 7 7 9 11 9 8 10 16 20 19 17 16 15 13 11 8 5 4 4 3 1 3 6 8 12 15 17 19 21 22
21 21 20 16 17 17 21 21 12 17 23 19 23 23 17 18 14 6 5 6 9 10 9 8 9 10 14 20 17 17 16 13 10 8 9 7 6 6 6 7 9 11 12 15 17 20 22 22 22
24 25 25 18 21 23 20 19 15 9 15 24 24 21 21 23 13 9 11 9 11 14 16 18 19 19 21 22 19 14 12 13 13 11 10 9 8 8 9 12 14 15 15 17 19 20 22 21 20
27 22 20 23 18 3 6 9 10 14 22 25 24 22 20 27 22 16 16 15 16 17 18 19 19 20 20 17 15 16 18 16 13 11 9 8 9 11 14 16 17 17 18 19 19 19 19 21 21
26 20 28 22 13 8 8 4 13 23 20 17 18 17 21 28 24 21 18 18 18 19 20 20 22 21 19 18 18 16 15 14 11 9 8 8 10 14 18 20 20 21 20 19 19 19 19 19 22
22 24 32 9 12 7 9 4 7 6 7 13 9 17 28 28 28 24 20 19 20 20 22 22 22 22 20 18 15 15 15 13 10 8 6 7 12 17 19 22 22 22 21 20 19 20 20 22 23
13 24 15 12 5 5 8 8 6 7 11 11 10 22 29 28 28 25 22 21 21 21 21 21 21 21 20 18 17 15 13 11 8 5 4 6 11 17 19 20 21 21 20 20 20 22 23 24 25
14 17 5 5 5 5 15 6 8 7 8 13 14 25 29 30 30 27 24 22 22 21 20 20 19 20 18 17 15 13 11 8 5 4 6 10 14 18 20 21 20 20 20 20 22 24 25 27 27
15 12 4 7 6 4 6 7 5 8 10 18 25 29 30 30 28 25 23 23 22 21 19 18 18 18 16 14 12 10 7 4 5 7 11 14 17 19 20 20 18 18 19 21 24 26 27 28 28
7 12 3 5 5 6 4 2 5 8 7 7 20 27 30 30 29 27 24 22 22 21 19 17 16 15 13 11 9 7 4 3 6 9 13 16 18 20 19 18 17 19 21 24 26 28 29 29 29
3 4 1 3 6 6 6 8 5 9 9 8 13 21 28 29 29 28 25 22 21 20 18 16 14 14 11 9 6 3 2 5 8 12 16 18 19 18 16 16 18 21 24 27 29 30 30 29 27
4 3 4 3 4 5 5 2 9 9 11 11 10 26 30 31 31 30 26 22 22 20 18 17 14 12 10 8 5 1 2 6 10 14 17 18 16 15 16 19 21 24 27 29 30 30 30 29 29
3 2 3 1 2 0 3 2 7 8 6 7 15 27 31 30 30 29 26 25 23 20 19 16 14 12 10 7 4 1 4 8 11 15 16 16 15 16 18 21 24 27 29 30 30 31 30 28 34
Wind_Direction
315 329 331 314 340 201 269 253 262 42 332 24 341 302 296 291 338 98 153 180 139 203 139 151 154 167 177 125 125 357 359 342 333 344 71 66 152 230 260 280 288 26 353 296 182 165 194 212 261
314 332 331 262 235 276 268 281 204 192 33 359 313 263 265 98 64 98 149 122 145 159 194 152 154 163 150 153 208 326 348 342 337 231 99 105 82 77 12 291 325 309 314 7 207 207 204 215 254
315 321 291 226 232 251 241 328 37 10 355 315 301 268 299 10 61 102 210 123 144 145 330 156 162 150 163 178 265 315 341 342 343 154 124 140 84 46 358 355 2 349 342 335 247 221 234 254 260
313 316 250 242 265 282 265 310 75 18 338 340 334 301 85 38 87 127 166 106 131 129 184 198 222 170 170 190 250 319 337 352 348 162 146 131 182 26 329 324 2 1 360 350 355 234 252 263 261
260 266 260 276 270 271 248 319 336 337 261 256 325 296 46 19 73 97 146 123 148 153 209 219 195 181 184 206 244 303 335 355 34 150 143 137 192 286 332 329 10 356 3 359 348 341 330 326 321
261 233 257 257 255 254 144 252 343 289 277 277 204 326 82 117 150 149 163 138 162 169 229 170 181 182 189 201 237 269 327 12 34 167 171 171 209 219 273 303 349 347 356 3 1 351 335 320 318
245 253 245 252 273 291 265 82 235 277 338 333 7 284 102 62 45 109 142 169 162 192 199 190 182 182 191 207 220 219 226 42 37 138 208 203 210 240 289 318 342 1 9 2 360 354 337 320 318
250 248 257 259 257 275 296 101 261 316 281 345 304 260 105 37 20 117 166 189 178 190 186 246 212 195 202 198 204 233 237 218 213 210 358 272 280 271 345 321 351 355 353 346 340 336 329 321 316
246 249 249 241 246 261 186 168 265 212 274 287 287 285 136 18 23 34 134 185 201 211 196 195 231 267 273 261 253 283 279 257 243 277 84 2 321 19 351 332 343 336 330 328 327 324 318 315 315
226 223 240 258 257 251 261 162 263 313 289 287 272 275 213 182 63 290 272 243 225 222 214 199 207 201 226 255 268 284 262 305 150 26 15 8 18 16 270 287 302 307 312 318 318 315 317 320 322
234 231 250 246 262 277 264 312 284 263 268 276 279 316 323 306 301 284 263 239 252 247 229 218 210 205 210 208 238 273 322 327 342 325 286 298 247 251 274 301 316 321 323 326 324 333 331 331 327
237 233 228 254 265 260 264 281 275 271 282 287 297 299 293 287 277 273 252 236 239 231 221 228 209 218 203 225 229 200 230 231 224 250 233 241 266 289 305 314 307 319 327 329 324 322 323 319 313
244 244 243 240 252 266 235 249 266 273 270 280 285 275 272 270 258 258 256 252 234 222 217 216 224 207 223 209 232 207 221 237 230 220 242 236 246 249 255 267 289 295 307 311 319 311 312 303 300
266 243 252 254 246 241 239 237 256 257 261 268 273 278 275 273 250 235 242 244 231 219 219 218 215 215 206 224 216 214 207 229 230 227 262 241 237 235 255 281 314 308 313 320 308 303 313 307 302
258 264 239 250 251 251 242 253 243 260 262 261 262 265 270 237 243 247 235 221 205 184 202 206 213 213 207 206 223 209 205 203 218 219 212 253 257 288 287 305 323 322 299 291 298 298 302 306 303
289 260 246 244 235 239 231 250 244 258 249 246 247 246 260 216 247 241 250 235 232 210 203 209 211 207 202 200 198 207 202 208 197 192 185 245 218 237 271 269 285 311 324 297 295 294 301 302 306
245 239 227 238 242 230 235 250 249 252 262 266 238 241 249 180 194 232 240 205 193 178 198 217 213 205 202 182 181 189 188 179 181 191 190 204 232 245 181 237 285 277 293 301 314 321 323 324 320
221 225 227 223 222 229 230 239 229 250 264 242 251 246 256 180 171 205 217 188 178 180 181 207 194 175 167 172 180 182 186 185 186 187 198 215 169 160 169 80 21 2 343 333 330 328 328 328 324
246 242 228 221 216 223 233 243 239 245 237 245 229 249 251 165 171 196 163 146 139 137 136 130 137 149 165 172 174 181 180 183 184 161 139 129 109 89 54 23 2 353 343 337 335 331 329 330 330
240 257 237 224 207 214 232 225 229 235 236 238 227 234 238 151 151 150 140 132 137 131 129 133 130 137 141 151 161 177 162 141 133 127 114 94 71 42 19 3 353 346 339 336 336 336 338 339 344
246 249 250 208 223 113 237 265 259 243 246 237 226 235 221 163 145 150 149 144 140 137 140 146 152 157 159 165 160 141 130 123 119 109 92 69 41 19 5 355 346 342 340 340 342 340 341 337 340
245 246 247 203 191 184 166 273 228 233 224 222 223 218 151 146 148 153 157 149 146 139 138 130 123 119 120 126 127 130 131 124 113 94 65 40 21 8 357 350 347 342 342 340 341 341 340 335 333
220 239 221 181 160 168 183 225 257 227 182 185 182 194 149 149 149 155 155 155 147 141 138 136 139 139 143 144 140 134 128 120 112 94 59 18 2 360 360 352 345 339 338 338 338 338 338 335 329
208 255 228 166 199 206 195 191 257 244 173 171 173 150 145 149 150 154 156 156 147 144 142 140 140 136 138 138 136 135 131 127 122 103 58 22 352 349 346 342 338 336 336 338 338 335 332 330 326
219 236 146 157 197 212 183 210 264 75 79 144 142 142 148 153 154 157 162 158 151 148 143 140 140 135 138 140 139 136 134 129 102 55 15 357 345 338 335 335 336 336 336 335 332 330 328 328 324
220 205 179 143 160 155 96 211 211 139 107 134 150 151 155 155 160 164 163 158 157 149 147 149 147 143 145 144 142 136 124 93 44 12 354 344 337 333 330 330 333 334 333 331 328 326 326 324 321
202 216 22 104 173 122 181 199 64 109 109 124 138 149 157 161 165 165 164 167 159 156 158 159 157 151 151 150 142 131 106 44 9 357 348 341 334 327 328 331 334 333 331 329 328 327 325 322 319
276 264 55 263 159 152 192 174 169 161 151 158 151 157 160 165 164 166 164 166 160 162 166 166 163 161 160 157 152 137 58 14 356 349 345 340 334 330 331 334 334 333 331 328 325 323 321 320 318
177 224 223 297 67 169 133 40 147 156 156 161 169 162 165 169 166 166 164 165 167 172 169 173 173 170 168 171 170 148 4 351 348 347 345 340 336 335 335 334 334 331 328 325 322 322 321 320 314
243 261 248 23 91 48 121 134 83 101 111 140 165 161 167 170 167 163 165 168 175 173 175 180 177 180 179 185 190 269 341 345 343 341 341 340 338 337 334 333 331 328 325 323 323 324 322 316 310
Height
1511 1509 1508 1507 1513 1504 1507 1496 1477 1481 1481 1485 1485 1487 1487 1483 1482 1498 1491 1490 1490 1487 1488 1490 1492 1495 1497 1499 1499 1499 1499 1499 1499 1499 1499 1499 1499 1500 1501 1501 1500 1501 1502 1502 1502 1503 1504 1506 1506
1510 1509 1508 1506 1515 1515 1505 1485 1481 1479 1483 1484 1486 1484 1483 1483 1483 1487 1489 1489 1490 1489 1489 1491 1493 1495 1497 1499 1499 1498 1498 1498 1498 1499 1500 1500 1500 1500 1500 1500 1500 1500 1500 1501 1502 1503 1504 1504 1504
1510 1509 1511 1504 1506 1509 1503 1484 1485 1482 1484 1486 1486 1483 1482 1487 1486 1488 1489 1489 1489 1490 1489 1491 1493 1495 1498 1499 1499 1498 1498 1497 1497 1498 1500 1501 1502 1500 1500 1500 1500 1500 1500 1501 1501 1502 1503 1504 1503
1510 1509 1508 1509 1508 1491 1484 1484 1482 1484 1485 1486 1485 1484 1484 1487 1486 1488 1489 1489 1489 1491 1490 1492 1493 1495 1497 1499 1498 1497 1497 1496 1497 1498 1499 1502 1502 1502 1501 1500 1500 1500 1499 1499 1500 1501 1502 1502 1502
1510 1509 1509 1506 1499 1486 1479 1482 1483 1486 1486 1486 1486 1485 1486 1487 1487 1488 1489 1490 1490 1491 1491 1492 1492 1494 1496 1497 1497 1497 1497 1496 1497 1498 1500 1502 1503 1502 1501 1500 1500 1500 1499 1499 1499 1500 1500 1500 1500
1507 1504 1509 1509 1497 1481 1478 1482 1484 1487 1485 1483 1483 1485 1488 1488 1488 1488 1489 1490 1491 1491 1489 1491 1491 1493 1495 1495 1496 1496 1496 1496 1497 1498 1499 1500 1502 1502 1501 1500 1500 1500 1499 1499 1499 1499 1499 1499 1499
1504 1503 1504 1500 1495 1484 1479 1481 1485 1485 1484 1483 1484 1485 1489 1487 1487 1487 1489 1491 1491 1491 1490 1490 1491 1492 1493 1494 1495 1495 1496 1496 1496 1497 1499 1499 1500 1499 1500 1500 1500 1500 1499 1499 1498 1498 1498 1498 1498
1502 1501 1500 1495 1494 1490 1479 1481 1484 1485 1485 1484 1484 1483 1487 1487 1487 1487 1489 1490 1491 1490 1491 1490 1491 1492 1493 1494 1494 1495 1495 1495 1496 1497 1498 1498 1499 1500 1500 1500 1500 1500 1499 1499 1498 1498 1498 1497 1497
1499 1501 1498 1492 1490 1486 1480 1482 1482 1484 1486 1484 1484 1484 1484 1485 1486 1487 1488 1490 1491 1490 1491 1492 1491 1491 1493 1493 1494 1494 1495 1495 1496 1497 1497 1498 1499 1499 1499 1500 1499 1499 1499 1498 1498 1497 1497 1496 1496
1494 1493 1490 1484 1481 1479 1478 1480 1482 1484 1484 1482 1482 1482 1482 1484 1485 1487 1487 1487 1488 1489 1489 1491 1492 1493 1493 1493 1493 1494 1495 1495 1496 1496 1497 1498 1498 1499 1501 1501 1500 1499 1498 1498 1498 1497 1496 1495 1495
1488 1484 1485 1481 1479 1478 1477 1478 1481 1482 1483 1482 1482 1481 1482 1483 1484 1485 1485 1486 1486 1485 1486 1488 1490 1491 1492 1494 1494 1493 1493 1494 1494 1495 1497 1498 1500 1500 1500 1500 1499 1499 1498 1497 1497 1496 1495 1494 1493
1484 1480 1480 1481 1478 1477 1478 1479 1480 1480 1480 1481 1480 1480 1480 1481 1481 1482 1483 1484 1485 1484 1484 1486 1488 1489 1490 1492 1493 1494 1495 1495 1497 1498 1499 1499 1499 1499 1500 1500 1499 1498 1497 1496 1496 1495 1495 1494 1493
1478 1478 1477 1476 1476 1475 1475 1477 1478 1477 1479 1478 1478 1478 1478 1478 1478 1479 1479 1480 1481 1482 1483 1484 1485 1487 1488 1491 1492 1493 1495 1495 1496 1497 1498 1498 1499 1499 1499 1500 1499 1498 1497 1496 1495 1494 1494 1493 1491
1476 1477 1473 1471 1470 1471 1472 1474 1476 1474 1475 1474 1475 1473 1473 1473 1473 1474 1476 1477 1478 1479 1480 1482 1482 1483 1486 1488 1490 1492 1493 1494 1495 1496 1496 1496 1498 1498 1498 1498 1498 1497 1496 1495 1494 1493 1491 1490 1488
1474 1475 1470 1466 1465 1465 1469 1467 1468 1469 1471 1469 1469 1469 1469 1469 1469 1470 1471 1471 1473 1473 1476 1479 1479 1481 1483 1487 1488 1490 1492 1493 1493 1494 1495 1495 1495 1496 1496 1496 1496 1496 1494 1493 1491 1490 1488 1486 1484
1476 1472 1475 1458 1459 1459 1466 1468 1462 1465 1463 1462 1462 1464 1464 1463 1466 1467 1467 1467 1467 1469 1472 1473 1474 1477 1480 1483 1487 1488 1490 1490 1492 1493 1493 1493 1493 1493 1493 1493 1493 1492 1491 1489 1488 1486 1485 1482 1480
1475 1468 1464 1464 1456 1455 1457 1463 1457 1460 1456 1456 1457 1460 1459 1460 1464 1465 1465 1465 1465 1466 1469 1469 1470 1473 1476 1481 1484 1485 1486 1486 1488 1489 1489 1489 1490 1490 1490 1490 1490 1489 1488 1486 1486 1484 1482 1479 1476
1462 1461 1450 1454 1450 1449 1451 1452 1451 1451 1452 1452 1453 1455 1456 1456 1460 1462 1464 1463 1463 1465 1467 1466 1468 1471 1474 1477 1479 1481 1481 1483 1485 1487 1487 1488 1489 1488 1488 1488 1488 1487 1486 1484 1483 1480 1478 1475 1471
1459 1454 1449 1444 1445 1446 1447 1447 1444 1445 1447 1447 1449 1451 1451 1452 1455 1461 1464 1462 1462 1465 1465 1466 1468 1469 1473 1475 1477 1478 1479 1482 1484 1486 1487 1487 1487 1488 1488 1488 1487 1485 1483 1481 1479 1477 1474 1472 1468
1464 1460 1448 1438 1436 1440 1439 1439 1438 1438 1439 1440 1442 1444 1446 1447 1454 1460 1463 1463 1465 1464 1465 1467 1469 1471 1473 1474 1475 1477 1480 1482 1484 1486 1486 1488 1488 1487 1487 1486 1485 1483 1481 1479 1476 1473 1470 1468 1466
1461 1459 1450 1434 1432 1427 1436 1442 1437 1430 1431 1431 1434 1438 1440 1441 1449 1458 1461 1464 1465 1464 1466 1467 1468 1471 1473 1474 1476 1479 1481 1483 1485 1487 1487 1488 1487 1487 1486 1485 1483 1482 1479 1476 1473 1470 1468 1465 1464
1461 1452 1443 1428 1428 1445 1436 1456 1427 1421 1422 1423 1428 1432 1436 1439 1446 1455 1460 1463 1465 1465 1467 1468 1469 1472 1474 1476 1477 1480 1481 1483 1485 1486 1487 1487 1487 1486 1485 1482 1480 1478 1476 1473 1470 1468 1466 1463 1460
1437 1450 1439 1418 1429 1440 1435 1451 1425 1409 1414 1418 1423 1428 1434 1439 1445 1453 1458 1462 1464 1466 1468 1468 1470 1473 1475 1477 1479 1481 1482 1484 1486 1486 1486 1485 1484 1483 1481 1479 1478 1475 1473 1470 1467 1465 1463 1461 1458
1433 1441 1420 1427 1438 1450 1431 1438 1425 1411 1407 1413 1420 1426 1432 1439 1445 1452 1457 1461 1464 1466 1468 1470 1471 1473 1475 1477 1479 1481 1482 1484 1485 1485 1485 1484 1482 1480 1479 1478 1475 1472 1470 1467 1464 1462 1460 1458 1455
1432 1421 1420 1440 1447 1436 1418 1433 1420 1401 1400 1405 1416 1425 1433 1439 1445 1450 1455 1459 1463 1466 1469 1471 1472 1473 1475 1477 1479 1481 1482 1483 1484 1484 1484 1483 1481 1479 1477 1474 1472 1470 1467 1465 1462 1460 1457 1454 1450
1420 1423 1410 1425 1433 1426 1409 1429 1414 1400 1403 1408 1415 1423 1432 1439 1444 1450 1455 1458 1462 1466 1469 1471 1472 1473 1476 1477 1479 1480 1481 1482 1482 1482 1482 1481 1479 1477 1474 1472 1470 1467 1465 1462 1459 1457 1453 1450 1446
1409 1399 1383 1386 1394 1413 1420 1407 1405 1405 1409 1410 1416 1424 1431 1437 1442 1449 1454 1457 1461 1464 1468 1470 1471 1473 1476 1477 1478 1479 1480 1481 1481 1481 1480 1478 1477 1474 1471 1469 1467 1465 1462 1459 1456 1452 1448 1445 1441
1401 1391 1397 1399 1409 1418 1418 1412 1411 1409 1412 1412 1417 1423 1430 1436 1442 1448 1452 1456 1460 1464 1467 1469 1471 1473 1474 1476 1477 1478 1479 1479 1479 1479 1478 1476 1473 1471 1469 1467 1464 1462 1459 1455 1451 1448 1444 1440 1436
1397 1398 1393 1387 1385 1405 1418 1413 1393 1400 1404 1409 1413 1419 1426 1433 1439 1445 1451 1455 1459 1463 1466 1467 1470 1472 1473 1475 1476 1477 1477 1477 1477 1477 1475 1473 1470 1468 1466 1464 1461 1458 1455 1451 1446 1442 1438 1434 1430
1392 1390 1389 1395 1396 1394 1399 1418 1396 1398 1400 1403 1409 1416 1424 1432 1438 1444 1449 1454 1457 1461 1464 1466 1468 1470 1472 1473 1474 1476 1476 1476 1475 1474 1472 1470 1468 1466 1463 1461 1458 1455 1451 1446 1441 1437 1433 1429 1424